428P/Gibbs (2021)

Japanese version
Home page
Updated on February 5, 2022

---------------------------------------------------------------------

* Profile

Designation 428P/2021 Q1
Recovery Date August 16, 2021
Magnitude 20.0 mag
Recoverer E. Schwab (Egelsbach, Germany)

* Pictures

* Orbital Elements

Epoch 2022 Jan. 21.0 TT = JDT 2459600.5
T 2021 May 14.66636 TT                                  Rudenko
q   1.6741293            (2000.0)            P               Q
n   0.15154433     Peri.   36.81738     +0.90887405     +0.39659336
a   3.4842523      Node   299.33623     -0.40919025     +0.78804141
e   0.5195155      Incl.    8.51501     -0.08069267     +0.47085502
P   6.50
From 121 observations 2014 June 21-2021 Dec. 14, mean residual 0".6.

* Finding Charts

* Magnitudes Graph

        m1 = 16.0 + 5 log d + 10.0 log r

        * Gray curve is:  m1 = 14.0 + 5 log d + 10.0 log r

---------------------------------------------------------------------

The orbital elements are published on M.P.E.C. 2022-C56.
The charts are made with StellaNavigator Ver.10 (AstroArts).
The magnitudes graphs are made with Comet for Windows.

---------------------------------------------------------------------

Copyright(C) Seiichi Yoshida (comet@aerith.net). All rights reserved.